Home   Weather   St. George   Past weeks
Flag for USA

Past Weather in St. George, Utah, USA — Yesterday and Last 2 Weeks

Now
34 °F

Light snow. Fog.


Feels Like: 31 °F
Forecast: 44 / 35 °F
Wind: 3 mph from West

Location: Saint George

Current Time: Feb 17, 2019 at 9:27:09 pm

Latest Report: Feb 17, 2019 at 8:32 pm


Visibility: 3 mi

Pressure: 29.88 "Hg (26.90 "Hg at 842m altitude)

Humidity: 93%

Dew Point: 32 °F

Location of St. GeorgeLocation

Past Weather in St. George — Graph

°F

St. George Temperature Yesterday

Maximum temperature yesterday: 48 °F (at 1:56 pm)
Minimum temperature yesterday: 34 °F (at 4:11 am)
Average temperature yesterday: 39 °F

High & Low Weather Summary for the Past Weeks

 TemperatureHumidityPressure
High57 °F (Feb 4, 12:56 pm)100% (Feb 14, 4:21 pm)30.41 "Hg (Feb 14, 4:21 pm)
Low24 °F (Feb 8, 7:56 am)25% (Feb 10, 2:56 pm)29.59 "Hg (Feb 3, 1:56 am)
Average41 °F65%29.94 "Hg
* Reported Feb 2 8:56 pm — Feb 17 8:17 pm, St. George. Weather by CustomWeather, © 2019

Note: Actual official high and low records may vary slightly from our data, if they occured in-between our weather recording intervals... More about our weather records

Advertising

St. George Weather History for the Previous 24 Hours

Scroll right to see more
 ConditionsComfort  
Time TempWeatherWind HumidityBarometerVisibility
8:17 pm
Sun, Feb 17
34 °FLight snow. Fog.5 mph93%29.88 "Hg2 mi
6:56 pm40 °FLight rain. Overcast.9 mph65%29.86 "Hg10 mi
5:56 pm39 °FMostly cloudy.16 mph67%29.83 "Hg10 mi
4:56 pm44 °FPassing clouds.No wind43%29.83 "Hg10 mi
3:56 pm44 °FSunny.10 mph45%29.84 "Hg10 mi
2:56 pm44 °FScattered clouds.13 mph55%29.85 "Hg10 mi
1:56 pm44 °FOvercast.7 mph47%29.85 "Hg10 mi
12:56 pm43 °FScattered clouds.13 mph58%29.88 "Hg10 mi
11:56 am42 °FPassing clouds.14 mph60%29.91 "Hg10 mi
11:35 am43 °FPartly sunny.14 mph61%29.91 "Hg10 mi
10:56 am40 °FPartly sunny.8 mph68%29.93 "Hg10 mi
9:56 am38 °FSunny.5 mph76%29.93 "Hg10 mi
8:56 am35 °FPassing clouds.9 mph82%29.93 "Hg10 mi
7:56 am32 °FPassing clouds.6 mph92%29.93 "Hg10 mi
6:56 am34 °FPassing clouds.3 mph97%29.91 "Hg10 mi
6:34 am34 °FPartly cloudy.5 mph100%29.88 "Hg10 mi
6:22 am34 °FMostly cloudy.No wind100%29.88 "Hg10 mi
6:03 am34 °FOvercast.5 mph100%29.88 "Hg10 mi
5:31 am34 °FLow clouds.5 mph100%29.88 "Hg8 mi
4:56 am34 °FLight rain. Low clouds.No wind97%29.90 "Hg8 mi
4:31 am34 °FMostly cloudy.No wind100%29.88 "Hg10 mi
4:03 am34 °FOvercast.3 mph100%29.88 "Hg10 mi
3:56 am34 °FMostly cloudy.5 mph97%29.89 "Hg10 mi
3:22 am34 °FLight rain. Mostly cloudy.No wind100%29.89 "Hg10 mi
3:08 am34 °FLight rain. Mostly cloudy.No wind100%29.89 "Hg10 mi
2:56 am34 °FLight rain. Mostly cloudy.3 mph97%29.90 "Hg10 mi
2:20 am36 °FLight rain. Mostly cloudy.7 mph87%29.90 "Hg10 mi
1:56 am37 °FLight rain. Mostly cloudy.5 mph82%29.91 "Hg10 mi
12:56 am38 °FMostly cloudy.13 mph76%29.90 "Hg10 mi
11:56 pm
Sat, Feb 16
39 °FOvercast.9 mph70%29.91 "Hg10 mi
10:56 pm39 °FPassing clouds.No wind73%29.92 "Hg10 mi
9:56 pm38 °FClear.6 mph76%29.91 "Hg10 mi
Weather by CustomWeather, © 2019

See weather overview